Regional Weather Roundup
Issued by NWS

Home | Current Version | Previous Version | Text Only | Print | Product List | Glossary Off
Versions: 1 2 3 4 5 6 7 8 9 10 11 12 13 14 15 16 17 18 19 20 21 22 23 24 25 26 27 28 29 30 31 32 33 34 35 36 37 38 39 40 41 42 43 44 45 46 47 48 49 50

927
ASUS43 KMPX 230910
RWRMN
WEATHER ROUNDUP FOR MINNESOTA
NATIONAL WEATHER SERVICE TWIN CITIES/CHANHASSEN MN
400 AM CDT FRI JUN 23 2017


NOTE: "FAIR" INDICATES FEW OR NO CLOUDS BELOW 12,000 FEET WITH NO
SIGNIFICANT WEATHER AND/OR OBSTRUCTIONS TO VISIBILITY. N/A MEANS
CURRENT SKY AND/OR WEATHER CONDITIONS ARE NOT AVAILABLE.

MNZ060>063-068>070-231000-
   Twin Cities Metro

CITY           SKY/WX    TMP DP  RH WIND       PRES   REMARKS
TWIN CITIES    CLEAR     60  55  83 SW6       29.72F
ST PAUL        CLEAR     58  56  93 CALM      29.72F
CRYSTAL        CLEAR     59  50  72 W5        29.70F
BLAINE         CLEAR     57  55  94 SW3       29.71F
LAKEVILLE      CLEAR     57  57 100 W3        29.73F
EDEN PRAIRIE   CLEAR     57  54  89 SW6       29.72F
SOUTH ST PAUL  CLEAR     60  56  89 W7        29.72S
LAKE ELMO      FAIR      54  54 100 CALM      29.73S
$$
MNZ001>005-007-008-013>017-022>024-027-028-231000-
   Northwest Minnesota

CITY           SKY/WX    TMP DP  RH WIND       PRES   REMARKS
BEMIDJI        CLOUDY    54  46  75 W8        29.68S
HALLOCK        CLEAR     55  52  88 NW9       29.69R
ROSEAU           N/A     54  48  82 W8        29.64R
WARROAD        PTCLDY    52  48  87 W10       29.63R
THIEF RVR FALL MOCLDY    55  50  82 W13       29.69S
CROOKSTON      MOCLDY    57  52  82 W12       29.70S
FOSSTON        PTCLDY    52  46  82 W8        29.70S
DETROIT LAKES  MOCLDY    57  46  67 W9G16     29.75S
MOORHEAD       CLEAR     57  46  67 W12G17    29.75S
PARK RAPIDS    CLEAR     55  43  63 W13       29.71S
MAHNOMEN       CLOUDY    54  47  77 SW10      29.71F
$$
MNZ006-009>011-018-025>026-231000-
   North Central Minnesota

CITY           SKY/WX    TMP DP  RH WIND       PRES   REMARKS
BAUDETTE       CLOUDY    55  49  80 W16       29.60S
FLAG ISLAND    CLOUDY    55  52  88 W17       29.58R
INTL FALLS     CLOUDY    55  46  71 W7        29.58F
WASKISH        PTCLDY    57  52  82 W17G26    29.63F
BIG FORK       CLEAR     52  45  76 SW3       29.64S
LONGVILLE      CLEAR     55  45  67 W3        29.69R
GRAND RAPIDS   CLEAR     57  44  62 W9        29.68S
CRANE LAKE     CLEAR     54  45  71 CALM      29.61F
ORR            PTCLDY    54  43  66 W5        29.59F
COOK           PTCLDY    54  45  71 W6        29.62F
WALKER         FAIR      53  45  72 W8        29.70R
$$
MNZ012-019>021-037-231000-
   Northeast Minnesota

CITY           SKY/WX    TMP DP  RH WIND       PRES   REMARKS
DULUTH         CLEAR     54  49  83 W10       29.64S
ELY            CLEAR     54  43  66 W6        29.60F
HIBBING        PTCLDY    49  44  83 SW5       29.64S
EVELETH        PTCLDY    53  43  69 W6        29.64S
DULUTH HARBOR  CLEAR     61  55  82 W9        29.64R
TWO HARBORS    CLEAR     57  50  77 W6        29.61S
SILVER BAY     PTCLDY    54  48  82 W3        29.60S
GRAND MARAIS     N/A     44  43  96 SW8       29.57F
G MARAIS ARPRT PTCLDY    52  39  62 W5        29.60F
$$
MNZ029>031-032-039>041-046>048-054>057-064-231000-
   West Central Minnesota

CITY           SKY/WX    TMP DP  RH WIND       PRES   REMARKS
FERGUS FALLS   MOCLDY    54  46  76 W8        29.75S
WHEATON        CLEAR     57  46  67 W10       29.81S
MORRIS         CLEAR     57  46  67 W10       29.78S
ALEXANDRIA     CLEAR     58  46  64 NW15      29.77S
ELBOW LAKE     FAIR      54  46  75 NW8       29.78S
WADENA         CLEAR     55  45  67 W7        29.73S
GLENWOOD       CLEAR     55  46  71 W13G20    29.77S
APPLETON       CLEAR     59  46  63 W9        29.79S
BENSON         CLEAR     57  46  67 N10       29.79S
ORTONVILLE     CLEAR     61  46  59 NW12      29.81S
MADISON        CLEAR     61  48  63 NW12      29.81R
WILLMAR        FAIR      61  52  72 W10       29.78S
$$
MNZ033>034-036-042>043-049>051-058-059-231000-
   Central Minnesota

CITY           SKY/WX    TMP DP  RH WIND       PRES   REMARKS
ST CLOUD       CLEAR     54  52  93 W8        29.72S
SAUK CENTRE    FAIR      56  46  70 W7        29.75S
PAYNESVILLE    CLEAR     55  55 100 W9        29.76S
AITKIN         PTCLDY    55  45  67 W5        29.68R
PINE RIVER     CLEAR     54  45  71 W5        29.74S
BRAINERD       CLEAR     59  44  57 NW13      29.71S
STAPLES        CLEAR     54  43  66 W7        29.73R
LONG PRAIRIE   FAIR      57  43  58 W9        29.75S
LITTLE FALLS   CLEAR     57  45  62 W7        29.72S
LITCHFIELD     CLEAR     63  55  77 W7        29.75S
BUFFALO        CLEAR     57  52  82 CALM      29.73S
MAPLE LAKE     CLEAR     58  55  88 W3        29.73F
HUTCHINSON     CLEAR     57  55  91 W7        29.75F
$$
MNZ037-044-045-052-053-231000-
   East Central Minnesota

CITY           SKY/WX    TMP DP  RH WIND       PRES   REMARKS
PRINCETON      CLEAR     57  52  82 W5        29.71S
MORA           CLEAR     54  50  87 W5        29.71S
CAMBRIDGE      CLEAR     61  48  63 W5        29.69S
RUSH CITY      MOCLDY    55  50  82 W5        29.69F
MOOSE LAKE     PTCLDY    55  50  82 W5        29.66S
HINCKLEY       FAIR      52  52 100 W3        29.68F
CLOQUET        CLEAR     57  46  67 W7        29.66S
MCGREGOR       CLEAR     55  45  67 W6        29.68S
$$
MNZ071>073-080-081-089-090-097-098-231000-
   Southwest Minnesota

CITY           SKY/WX    TMP DP  RH WIND       PRES   REMARKS
MONTEVIDEO     CLEAR     59  54  82 N12G17    29.79S
GRANITE FALLS  CLEAR     60  54  82 W12       29.81R
CANBY          CLEAR     59  49  68 W12       29.83R
MARSHALL       CLEAR     61  52  72 NW13      29.80S
REDWOOD FALLS  CLEAR     60  53  77 NW8       29.76F
OLIVIA         CLEAR     59  54  82 W12       29.77R
PIPESTONE      CLEAR     57  48  72 NW8       29.83S
WINDOM         CLEAR     54  50  87 W5        29.79F
WORTHINGTON    CLEAR     56  50  80 W6        29.81F
JACKSON        CLEAR     55  50  82 CALM      29.80F
TRACY          CLEAR     62  54  73 W6        29.80F
SLAYTON        CLEAR     57  47  69 W8        29.82F
$$
MNZ065>067-074>077-082>085-091>093-231000-
   South Central Minnesota

CITY           SKY/WX    TMP DP  RH WIND       PRES   REMARKS
MANKATO        CLEAR     58  54  86 W8        29.76F
NEW ULM        CLEAR     54  52  94 W6        29.76F
ST JAMES       CLEAR     54  52  94 W5        29.78F
FAIRMONT       CLEAR     56  52  86 W5        29.78F
GLENCOE        CLEAR     59  56  91 SW6       29.74F
FARIBAULT      CLEAR     59  55  88 SW5       29.75F
OWATONNA       CLEAR     57  55  94 S3        29.76S
WASECA         CLEAR     54  52  94 CALM      29.77F
ALBERT LEA     CLEAR     57  57 100 W3        29.77F
$$
MNZ078>079-086>088-094>096-231000-
   Southeast Minnesota

CITY           SKY/WX    TMP DP  RH WIND       PRES   REMARKS
ROCHESTER      CLEAR     59  58  96 W8        29.76F
RED WING       FOG       57  55  94 CALM      29.72S VSB 1
STANTON        CLEAR     59  55  87 S6        29.73F
DODGE CENTER   CLEAR     57  55  94 SW6       29.76F
WINONA         FOG       59  59 100 CALM      29.72F VSB 1/4
AUSTIN         CLEAR     59  57  94 CALM      29.75F
PRESTON        FOG       60  59  96 CALM      29.76F VSB 1
$$
ABBREVIATIONS USED IN REMARKS
   TC - TEMPERATURES IN CELSIUS
  WCI - WIND CHILL INDEX
   HX - HEAT INDEX
  VSB - VISIBILITY
$$




USA.gov is the U.S. government's official web portal to all federal, state and local government web resources and services.